User: anonymous   Login
Location: Unspecified
(0.0000°N, 0.0000°E)
Time: 00:45:33
(UTC+00:00)
Language:

STARLINK-3395 - Orbit

View from above orbital plane
View from above orbital plane
View from above satellite
View from above satellite

Ground track
Ground track

The orbit is defined by the following mean orbital elements,

1 51130U          26145.18701289 +.00000000 +00000-0 +42613-4 0 00007
2 51130  53.2130 315.7113 0001361  89.1876 270.9272 15.08835265    09
Epoch (UTC): 25 May 2026 04:29:17
Eccentricity: 0.0001361
inclination: 53.2130°
perigee height: 539 km
apogee height: 541 km
right ascension of ascending node: 315.7113°
argument of perigee: 89.1876°
revolutions per day: 15.08835265
mean anomaly at epoch: 270.9272°

The dashed part of the orbit path shows where the satellite is in the earth's shadow,  

DLR